Tracking 25963 objects as of 12-Aug-2022
HD Live streaming from Space Station
objects crossing your sky now

RESURS O1 DEB

Track RESURS O1 DEB now!
10-day predictions


NORAD ID: 48495
Int'l Code: 1994-074DW
Perigee: 597.0 km
Apogee: 604.7 km
Inclination: 97.9 °
Period: 96.6 minutes
Semi major axis: 6971 km
RCS: Unknown
Launch date: November 4, 1994
Source: Commonwealth of Independent States (former USSR) (CIS)
Launch site: TYURATAM MISSILE AND SPACE COMPLEX (TTMTR)

Note: This is SATELLITE DEBRIS
aabbcc
Your satellite tracking list
Your tracking list is empty




NASA's NSSDC Master Catalog

Two Line Element Set (TLE):
1 48495U 94074DW  22222.92707687  .00013039  00000-0  13106-2 0  9999
2 48495  97.9083 275.8074 0005561 114.9425 245.2371 14.91361056 77840
Source of the keplerian elements: AFSPC